This demonstration page uses our WeatherBlox Daily Observations layout. Learn more.

Left ArrowRight Arrow

Hourly Observations for June 12, 2021

Temp ( °F °C ) Dew Point ( °F °C ) Humidity (%) Winds ( mph kmh ) Pressure ( in mb ) Visibility ( mi km ) Precip ( " mm )
12:53 am 00:53 Clear with Mist and Fog 71 21.7 70 21.1 96 96 N N/A 29.81 1010 5 8 N/A
1:53 am 01:53 Clear with Mist and Fog 70 21.1 69 20.6 97 97 N N/A 29.80 1009 6 10 N/A
2:53 am 02:53 Clear with Mist and Fog 69 20.6 69 20.6 100 100 N N/A 29.81 1009 5 8 N/A
3:40 am 03:40 Partly Cloudy with Mist and Fog 68 20 68 20 100 100 N N/A 29.81 1009 3 5 N/A
3:43 am 03:43 Mostly Cloudy with Mist and Fog 68 20 68 20 100 100 N N/A 29.81 1009 3 4 N/A
3:51 am 03:51 Mostly Cloudy with Mist and Fog 66 19 66 19 100 100 N N/A 29.81 1009 1 2 N/A
3:53 am 03:53 Mostly Cloudy with Mist and Fog 67 19.4 67 19.4 100 100 N N/A 29.81 1009 1 2 N/A
4:04 am 04:04 Mostly Cloudy with Fog 68 20 68 20 100 100 N N/A 29.82 1010 1 1 N/A
4:33 am 04:33 Cloudy with Mist and Fog 68 20 67 19.4 96 96 N N/A 29.82 1010 2 3 N/A
4:40 am 04:40 Mostly Cloudy with Mist and Fog 68 20 67 19.4 96 96 N N/A 29.82 1010 1 1 N/A
4:50 am 04:50 Mostly Cloudy with Fog 66 19 66 19 100 100 N 3 6 29.82 1010 0 0 N/A
4:53 am 04:53 Mostly Cloudy with Fog 67 19.4 67 19.4 100 100 N N/A 29.81 1010 0 0 N/A
5:16 am 05:16 Mostly Cloudy with Fog 68 20 67 19.4 96 96 N N/A 29.82 1010 1 1 N/A
5:27 am 05:27 Mostly Cloudy with Fog 66 18.9 66 18.9 100 100 NW 3 6 29.83 1010 0 0 N/A
5:48 am 05:48 Mostly Cloudy with Mist and Fog 66 19 66 19 100 100 N N/A 29.84 1010 1 2 N/A
5:49 am 05:49 Mostly Cloudy with Mist and Fog 67 19.4 67 19.4 100 100 N N/A 29.83 1010 1 2 N/A
5:51 am 05:51 Mostly Cloudy with Mist and Fog 67 19.4 67 19.4 100 100 N N/A 29.84 1010 2 3 N/A
5:56 am 05:56 Partly Cloudy with Mist and Fog 67 19.4 67 19.4 100 100 WSW 3 6 29.84 1010 2 3 N/A
5:59 am 05:59 Mostly Cloudy with Mist and Fog 67 19.4 67 19.4 100 100 N N/A 29.84 1010 2 2 N/A
6:08 am 06:08 Mostly Cloudy with Fog 68 20 67 19.4 96 96 N N/A 29.85 1011 1 1 N/A
6:30 am 06:30 Mostly Cloudy with Fog 67 19.4 67 19.4 100 100 N N/A 29.85 1011 0 0 N/A
6:43 am 06:43 Mostly Cloudy with Mist and Fog 67 19.4 67 19.4 100 100 N N/A 29.85 1011 1 2 N/A
6:53 am 06:53 Mostly Cloudy with Mist and Fog 66 18.9 66 18.9 100 100 N N/A 29.85 1011 1 1 N/A
6:58 am 06:58 Partly Cloudy with Mist and Fog 66 18.9 66 18.9 100 100 N N/A 29.86 1011 1 2 N/A
7:08 am 07:08 Sunny with Mist and Fog 67 19.4 66 18.9 97 97 N N/A 29.85 1011 2 3 N/A
7:29 am 07:29 Sunny with Mist and Fog 68 20 67 19.4 96 96 N N/A 29.86 1011 2 2 N/A
7:42 am 07:42 Sunny with Mist and Fog 68 20 68 20 100 100 N N/A 29.86 1011 2 3 N/A
7:53 am 07:53 Sunny with Mist and Fog 68 20 68 20 100 100 N N/A 29.85 1011 2 3 N/A
8:15 am 08:15 Sunny with Mist and Fog 70 21.1 70 21.1 100 100 N N/A 29.85 1011 4 6 N/A
8:53 am 08:53 Hazy 75 23.9 70 21.1 84 84 N N/A 29.85 1011 6 10 N/A
9:53 am 09:53 Sunny 80 26.7 71 21.7 74 74 N N/A 29.85 1011 8 13 N/A
10:53 am 10:53 Sunny 84 28.9 71 21.7 65 65 N N/A 29.85 1011 10 16 N/A
11:53 am 11:53 Sunny 87 30.6 70 21.1 57 57 NE 7 11 29.85 1011 10 16 N/A
12:53 pm 12:53 Mostly Sunny 88 31.1 69 20.6 54 54 N 6 9 29.85 1011 10 16 N/A
1:53 pm 13:53 Mostly Sunny 89 31.7 68 20 50 50 VRB 5 7 29.83 1010 10 16 0.00 0.00
2:53 pm 14:53 Mostly Cloudy with Light Rain 90 32.2 69 20.6 50 50 VRB 5 7 29.83 1010 10 16 0.00 0.00
3:53 pm 15:53 Mostly Sunny 91 32.8 69 20.6 49 49 E 6 9 29.82 1010 10 16 0.00 0.00
4:53 pm 16:53 Sunny 91 32.8 68 20 47 47 N 7 11 29.80 1009 10 16 0.00 0.00
5:53 pm 17:53 Sunny with Light Rain 90 32.2 70 21.1 52 52 E 5 7 29.80 1009 10 16 0.00 0.00
6:53 pm 18:53 Sunny 83 28.3 77 25 82 82 N N/A 29.80 1009 10 16 0.00 0.00
7:53 pm 19:53 Sunny 81 27.2 77 25 88 88 N N/A 29.81 1009 10 16 0.00 0.00
8:53 pm 20:53 Sunny 83 28.3 69 20.6 63 63 WNW 7 11 29.82 1010 10 16 0.00 0.00
9:53 pm 21:53 Clear 75 23.9 70 21.1 84 84 N N/A 29.83 1010 10 16 N/A
10:53 pm 22:53 Clear 73 22.8 71 21.7 94 94 N N/A 29.85 1011 9 14 0.00 0.00
11:53 pm 23:53 Mostly Clear 74 23.3 71 21.7 91 91 N N/A 29.87 1012 10 16 N/A

Powered by AerisWeather